Reflectivity
15 -13 -15 2 3 22 25 33 33 32 5 17 29 28 23 25 29 7 -3 -0 25 -1 -1 6 3 -9 -20 -20 -20 -20 -20 -20 -20 -20 -20 -6 -20 -20 -20 -20 -20 -20 -20
33 -3 6 24 29 33 29 33 28 30 15 -7 5 10 7 24 12 7 11 10 16 10 13 10 8 3 2 -15 -20 -20 -20 -20 -20 -20 -20 -18 -16 11 -20 -20 -20 -20 -20
35 38 40 27 35 37 33 34 38 36 30 23 17 8 14 7 11 8 6 5 6 -1 12 23 21 14 8 10 -20 -20 -20 -20 -20 -15 -18 -20 -15 -2 -20 -13 -20 -3 -20
37 37 37 29 27 11 22 22 8 7 14 7 8 2 2 -11 -9 6 5 3 16 16 -0 16 10 9 13 9 6 -20 -20 -20 -20 -20 -20 -20 -20 -20 -20 -20 -20 -20 -20
32 35 30 25 9 15 -0 13 0 3 -1 -20 -15 -4 7 -14 -19 -20 -20 -20 -20 -20 -20 -20 -14 -11 -8 -12 -19 -20 -20 -20 -20 -20 -20 -20 -20 -20 -20 -20 -16 -20 -20
14 30 -4 8 -8 -0 -5 -20 -20 -20 -20 -17 -20 -20 -20 -20 -20 -20 -20 -20 -20 -20 -20 -20 -20 -20 -20 -20 -20 -20 -20 -20 -20 -20 -20 -20 -20 -20 -20 -20 -20 0 -20
27 18 -4 3 -14 -6 -20 -20 -20 -20 -20 -20 -20 -20 -20 -20 -20 -20 -20 -20 -20 -20 -20 -20 -20 -20 -20 -20 -20 -20 -20 -20 -20 -9 11 13 13 -13 -20 -20 -20 -20 -20
7 -1 -6 -7 -18 -20 -20 -20 -20 -20 -20 -20 -20 -20 -20 -20 -20 -20 -20 -20 -20 -20 -20 -20 -20 -20 -20 -20 -20 -20 -20 -20 -20 -20 -20 -12 14 13 25 6 -6 -20 -20
-20 -4 -10 -20 -20 -20 -20 -20 -20 -20 -20 -20 -20 -20 -20 -20 -20 -20 -20 -20 -20 -20 -20 -20 -20 -20 -20 -20 -20 -20 -20 -20 -20 -20 -20 -20 -18 -19 -20 -18 -5 13 -0
-10 -20 -20 -20 -20 -20 -20 -20 -20 -20 -20 -20 -20 -20 -20 -20 -20 -20 -20 -20 -20 -20 -20 -20 -20 -20 -20 -20 -20 -20 -20 -20 -20 -20 -20 -20 -20 -20 -20 -20 -20 0 4
-20 -20 -20 -20 -20 -20 -20 -20 -20 -20 -20 -20 -20 -20 -20 -20 -20 -20 -20 -20 -20 -20 -20 -20 -20 -20 -20 -20 -20 -20 -20 -20 -20 -20 -20 -20 -20 -20 -20 -20 -20 -20 -20
-20 -20 -20 -20 -20 -20 -20 -20 -20 -20 -20 -20 -20 -20 -20 -20 -20 -20 -20 -20 -20 -20 -20 -20 -20 -20 -20 -20 -20 -20 -20 -20 -20 -20 -20 -20 -20 -20 -20 -20 -20 -20 -20
-20 -20 -20 -20 -20 -20 -20 -20 -20 -20 -20 -20 -20 -20 -20 -20 -20 -20 -20 -20 -20 -20 -20 -20 -20 -20 -20 -20 -20 -20 -20 -20 -20 -20 -20 -20 -20 -20 -20 -20 -20 -20 -20
-20 -20 -20 -20 -20 -20 -20 -20 -20 -20 -20 -20 -20 -20 -20 -20 -20 -20 -20 -20 -20 -20 -20 -20 -20 -20 -20 -20 -20 -20 -20 -20 -20 -20 -20 -20 -20 -20 -20 -20 -20 -20 -20
-20 -20 -20 -20 -20 -20 -20 -20 -20 -20 -20 -20 -20 -20 -20 -20 -20 -20 -20 -20 -20 -20 -20 -20 -20 -20 -20 -20 -20 -20 -20 -20 -20 -20 -20 -20 -20 -20 -20 -20 -20 -20 -20
-20 -20 -20 -20 -20 -20 -20 -20 -20 -20 -20 -20 -20 -20 -20 -20 -20 -20 -20 -20 -20 -20 -20 -20 -20 -20 -20 -20 -20 -20 -20 -20 -20 -20 -20 -20 -20 -20 -20 -20 -20 -20 -20
-20 -20 -20 -20 -20 -20 -20 -20 -20 -20 -20 -20 -20 -20 -20 -20 -20 -20 -20 -20 -20 -20 -20 -20 -20 -20 -20 -20 -20 -20 -20 -20 -20 -20 -20 -20 -20 -20 -20 -20 -20 -20 -20
-20 -20 -20 -20 -20 -20 -20 -20 -20 -20 -20 -20 -20 -20 -20 -20 -20 -20 -20 -20 -20 -20 -20 -20 -20 -20 -20 -20 -20 -20 -20 -20 -20 -20 -20 -20 -20 -20 -20 -20 -20 -20 -20
-20 -20 -20 -20 -20 -20 -20 -20 -20 -20 -20 -20 -20 -20 -20 -20 -20 -20 -20 -20 -20 -20 -20 -20 -20 -20 -20 -20 -20 -20 -20 -20 -20 -20 -20 -20 -20 -20 -20 -20 -20 -20 -20
-20 -20 -20 -20 -20 -20 -20 -20 -20 -20 -20 -20 -20 -20 -20 -20 -20 -20 -20 -20 -20 -20 -20 -20 -20 -20 -20 -20 -20 -20 -20 -20 -20 -20 -20 -20 -20 -20 -20 -20 -20 -20 -20
-20 -20 -20 -20 -20 -20 -20 -20 -20 -20 -20 -20 -20 -20 -20 -20 -20 -20 -20 -20 -20 -20 -20 -20 -20 -20 -20 -20 -20 -20 -20 -20 -20 -20 -20 -20 -20 -20 -20 -20 -20 -20 -20
-20 -20 -20 -20 -20 -20 -20 -20 -20 -20 -20 -20 -20 -20 -20 -20 -20 -20 -20 -20 -20 -20 -20 -20 -20 -20 -20 -20 -20 -20 -20 -20 -20 -20 -20 -20 -20 -20 -20 -20 -20 -20 -20
-20 -20 -20 -20 -20 -20 -20 -20 -20 -20 -20 -20 -20 -20 -20 -20 -20 -20 -20 -20 -20 -20 -20 -20 -20 -20 -20 -20 -20 -20 -20 -20 -20 -20 -20 -20 -20 -20 -20 -20 -20 -20 -20
-20 -20 -20 -20 -20 -20 -20 -20 -20 -20 -20 -20 -20 -20 -20 -20 -20 -20 -20 -20 -20 -20 -20 -20 -20 -20 -20 -20 -20 -20 -20 -20 -20 -20 -20 -20 -20 -20 -20 -20 -20 -20 -20
-20 -20 -20 -20 -20 -20 -20 -20 -20 -20 -20 -20 -20 -20 -20 -20 -20 -20 -20 -20 -20 -20 -20 -20 -20 -20 -20 -20 -20 -20 -20 -20 -20 -20 -20 -20 -20 -20 -20 -20 -20 -20 -20
-20 -20 -20 -20 -20 -20 -20 -20 -20 -20 -20 -20 -20 -20 -20 -20 -20 -20 -20 -20 -20 -20 -20 -20 -20 -20 -20 -20 -20 -20 -20 -20 -20 -20 -20 -20 -20 -20 -20 -20 -20 -20 -20
Wind_Speed
7 15 22 20 4 9 9 9 11 14 18 16 16 17 17 18 19 19 19 18 17 17 16 16 17 16 16 16 16 16 15 14 13 12 10 10 12 12 13 11 9 7 12
10 16 26 7 12 15 16 16 16 20 20 19 20 20 21 21 22 22 22 22 22 22 20 17 16 16 16 16 17 17 17 17 16 12 6 8 11 13 13 11 8 7 10
5 12 11 24 21 20 19 20 21 22 23 23 23 24 24 23 22 23 22 22 22 22 21 21 20 19 17 15 16 16 17 18 18 17 8 4 7 13 13 10 7 7 8
5 9 9 19 21 20 20 21 22 22 21 22 22 22 22 22 21 20 20 20 20 20 19 19 20 21 20 20 19 18 17 18 18 14 5 5 7 14 13 12 10 8 7
6 6 10 17 19 18 19 19 20 20 21 22 21 21 20 20 20 20 20 20 20 20 19 19 19 18 18 18 18 18 18 19 15 9 6 6 5 10 12 12 9 7 5
6 6 12 16 17 17 19 19 19 19 20 20 20 20 19 20 19 19 19 20 19 19 19 18 18 17 18 18 19 19 19 20 15 9 5 8 6 10 10 11 12 12 7
6 7 7 15 17 17 17 18 18 19 18 18 18 18 18 18 19 19 19 19 19 19 19 19 19 19 18 19 21 21 21 19 9 9 5 5 5 10 10 10 10 11 12
6 4 8 13 16 15 15 17 17 17 17 16 17 17 18 19 19 19 20 19 19 19 19 19 19 19 19 19 21 22 22 21 12 9 7 7 15 15 15 15 12 11 11
5 6 4 6 11 14 16 16 16 16 17 16 17 17 18 17 19 19 19 20 19 20 19 19 20 19 19 19 20 22 22 20 10 8 9 7 16 16 16 18 17 17 14
6 6 5 6 6 6 4 14 16 17 16 17 16 17 17 16 19 19 18 19 20 20 20 19 20 21 20 20 20 20 19 18 9 8 6 9 19 18 17 17 17 17 18
5 6 5 5 6 6 6 9 13 17 17 16 14 16 12 6 7 11 17 18 18 19 19 19 19 20 20 19 21 21 17 6 7 7 5 19 19 17 17 17 17 17 18
5 4 4 5 5 6 6 6 6 9 6 7 7 7 5 7 8 10 13 19 19 20 20 21 20 20 15 6 6 13 6 8 7 6 5 20 19 18 18 18 18 18 19
6 4 5 4 4 7 5 4 3 4 4 5 8 7 7 6 5 5 4 5 5 13 6 8 7 6 7 6 7 6 7 6 4 5 10 21 20 20 20 19 19 18 18
7 7 6 5 6 6 4 4 4 5 4 4 6 7 5 4 5 5 4 5 5 5 6 5 4 6 8 9 8 8 7 6 5 5 7 19 20 20 21 21 21 20 19
8 7 7 6 6 6 6 4 4 4 4 5 6 7 6 5 5 4 4 5 5 5 4 4 4 6 7 9 8 9 9 7 8 6 5 17 19 19 19 20 20 20 20
9 7 6 7 7 7 5 6 4 4 5 5 5 5 6 4 4 4 5 5 4 3 3 4 5 5 5 6 8 8 9 7 9 8 7 8 19 20 20 20 19 18 17
9 8 7 7 7 7 7 6 5 4 5 4 4 6 6 5 5 5 3 3 3 4 6 5 5 4 4 5 5 6 5 8 8 9 7 5 9 16 18 17 19 16 17
11 10 8 8 8 7 7 5 4 5 4 4 4 4 6 5 6 4 3 4 5 5 4 4 4 5 5 5 6 5 6 7 9 8 5 5 5 5 9 17 17 16 17
12 10 8 8 8 7 7 5 5 6 5 4 4 4 5 5 5 5 4 4 5 4 4 4 4 4 4 6 8 6 6 6 5 7 6 7 7 6 5 12 17 18 19
10 8 7 7 8 8 5 5 4 4 4 4 4 4 5 4 5 5 4 4 4 4 4 4 4 3 2 5 8 6 7 5 3 3 4 8 6 8 8 7 5 8 21
10 10 8 8 7 5 3 4 3 4 3 2 3 5 5 4 5 5 3 4 4 4 4 6 3 4 3 8 4 8 3 6 3 5 10 6 5 6 6 7 7 6 7
14 11 9 8 7 5 4 3 3 4 2 3 3 4 4 4 3 3 3 4 5 3 5 4 4 3 2 6 4 3 7 6 5 16 9 6 8 5 10 10 9 7 8
15 13 11 8 7 6 6 4 3 3 3 3 2 2 1 3 3 3 3 3 4 3 3 3 3 5 4 3 5 2 5 3 13 5 13 7 7 10 8 6 11 11 8
14 11 10 9 8 7 7 4 5 4 4 2 2 1 2 4 3 4 4 4 4 3 4 3 5 3 3 5 3 2 2 5 5 9 2 8 11 8 14 10 8 10 12
14 12 11 10 8 7 6 6 6 5 4 2 3 4 3 3 5 5 5 4 4 3 4 5 5 5 2 2 1 3 4 6 8 8 14 4 10 8 7 8 9 10 9
13 12 12 11 7 7 7 7 8 8 6 4 2 2 1 2 3 5 4 4 4 4 4 4 4 5 4 4 3 4 5 6 8 8 14 14 15 10 8 8 7 8 9
Wind_Direction
322 313 318 310 67 61 81 88 81 77 75 80 81 79 76 73 68 64 57 54 55 61 61 58 56 55 49 41 39 36 34 36 34 31 33 62 66 60 53 60 61 62 70
292 305 315 145 101 75 64 61 69 73 72 75 75 71 68 64 58 54 51 46 46 48 47 48 54 52 46 43 38 27 21 18 13 5 28 52 60 60 55 49 51 64 68
329 301 352 61 68 66 62 64 65 66 64 63 64 61 60 60 58 56 53 48 45 42 38 38 44 43 41 45 41 30 18 13 7 3 88 67 59 53 45 46 49 56 58
317 360 31 53 63 62 63 62 63 66 64 62 60 60 58 55 54 55 53 52 46 46 44 36 32 34 31 33 28 23 14 9 7 10 53 47 52 43 39 36 42 36 30
69 15 56 65 64 67 71 70 70 67 68 69 68 66 65 63 58 56 55 54 49 46 44 41 37 35 34 33 28 19 12 8 357 0 25 69 50 36 30 25 24 21 6
92 36 58 69 76 71 72 70 71 71 69 69 69 68 66 63 61 58 55 51 48 46 40 39 37 33 30 29 24 19 12 4 356 350 52 46 41 35 29 19 10 8 342
106 93 79 75 72 70 73 73 72 71 71 70 69 69 67 63 61 57 53 52 46 43 37 32 31 27 28 26 20 17 7 2 3 359 54 52 36 32 22 12 4 360 359
108 121 86 80 78 77 75 75 75 73 74 73 73 65 67 61 58 54 53 48 47 45 41 37 36 30 29 25 21 19 21 18 15 2 31 23 20 15 13 10 360 352 348
72 94 125 102 89 80 76 77 75 76 73 71 70 66 61 61 56 54 49 46 43 40 38 35 34 31 29 24 21 17 17 14 15 7 12 15 5 7 7 3 354 354 348
70 54 62 105 112 92 70 82 77 72 68 66 66 65 56 54 54 49 44 45 39 34 35 30 30 23 23 21 19 20 16 10 359 7 351 5 3 359 359 355 349 344 341
73 67 57 77 99 137 93 79 77 73 63 54 48 58 47 36 45 39 43 42 40 34 31 30 26 24 16 13 12 13 13 5 355 355 349 352 352 351 348 344 340 337 333
125 87 61 58 78 78 93 87 76 77 59 50 40 37 43 39 40 52 42 39 35 32 25 23 19 19 11 357 1 6 0 354 357 344 348 348 346 341 337 336 334 331 327
148 137 135 114 100 95 96 84 78 70 57 49 44 42 43 41 29 35 32 33 22 25 16 17 8 12 360 355 3 358 356 351 343 339 342 343 338 335 333 329 326 325 322
155 155 138 127 100 100 94 81 82 84 63 59 51 46 50 36 29 29 32 30 23 18 7 4 1 3 3 2 1 356 349 343 340 334 334 334 333 332 329 327 323 320 317
154 154 145 128 116 105 97 98 93 95 96 74 57 46 46 38 30 25 34 33 20 8 357 356 4 8 4 360 358 351 344 338 337 334 321 325 331 330 329 327 324 322 324
152 150 152 139 132 119 116 108 100 90 88 77 70 68 58 55 35 38 37 29 11 345 351 12 14 7 354 350 343 337 328 323 324 318 316 318 326 328 330 332 328 325 328
160 154 162 143 131 119 123 121 107 101 91 91 79 70 69 58 46 49 50 26 1 2 19 11 1 358 351 342 321 314 307 310 311 311 311 321 323 327 344 355 10 359 355
156 160 173 149 139 132 128 114 107 111 101 94 85 67 64 56 47 44 44 27 13 14 19 355 2 4 352 342 326 306 307 315 314 312 326 318 321 339 343 354 7 1 360
160 165 167 143 140 137 128 126 124 122 112 111 89 76 62 55 40 47 37 23 22 20 13 10 360 8 346 343 327 318 302 300 293 317 338 336 328 345 350 10 7 359 351
156 155 151 145 148 149 142 130 111 111 106 101 100 96 79 68 51 57 40 30 26 24 12 5 355 342 323 337 325 317 299 283 281 54 356 355 345 353 357 3 353 341 338
158 157 158 151 166 148 139 135 121 128 115 99 111 109 86 76 59 63 43 30 25 28 8 358 331 334 3 350 333 328 296 317 38 4 346 333 326 351 337 344 329 320 318
164 163 157 160 160 152 128 131 129 135 147 134 117 106 95 104 86 83 64 36 28 17 3 356 358 344 332 11 357 321 347 340 2 337 317 320 337 330 334 321 324 336 343
165 164 163 154 144 139 132 119 95 89 78 80 73 75 31 100 103 101 71 55 21 18 356 345 0 28 352 355 33 17 335 313 328 312 326 311 334 327 308 321 321 321 326
163 156 146 141 136 144 144 132 144 143 135 166 141 106 35 61 38 45 52 50 25 360 353 340 13 18 30 336 345 10 248 286 307 313 348 326 291 316 315 311 315 313 309
155 151 142 137 134 132 136 127 121 115 115 123 94 71 51 20 30 33 46 31 4 355 349 353 346 347 348 317 312 313 304 295 284 285 301 298 294 292 296 291 287 296 302
146 142 141 136 139 135 126 125 125 128 130 113 96 83 34 18 20 14 9 359 350 346 343 329 321 322 308 293 280 277 276 281 286 285 290 300 301 301 292 286 280 283 291